Zurück zum Katalog

TIANTONG-1 2

AktivKommunikationGEO
NORAD 46916·PAYLOAD·🇨🇳 China

Gestartet Nov 12, 2020 von Xichang Satellite Launch Center

Loading…

TLE

AktuellSource: Space-Track

Epoche: Sep 14, 2026, 14:23 UTC

1 46916U 20082A   26257.59988778 -.00000363  00000-0  00000-0 0  9994
2 46916   0.7083 342.1644 0000571 228.5579 123.7595  1.00272527 21541

Verfolge TIANTONG-1 2 in Echtzeit mit AllMySat

Download on the App Store